QPF
0.12 0.13 0.11 0.12 0.14 0.12 0.09 0.08 0.07 0.06 0.08 0.08 0.07 0.06 0.07 0.07 0.09 0.08 0.05 0.02 0.02 0.03 0.03 0.04 0.04 0.05 0.06 0.07 0.08 0.08 0.08 0.08 0.08 0.07 0.05 0.03 0.02 0.02 0.03 0.03 0.03 0.02 0.01 0.00
0.08 0.08 0.07 0.10 0.13 0.14 0.11 0.09 0.08 0.06 0.07 0.08 0.06 0.04 0.04 0.04 0.06 0.06 0.04 0.02 0.01 0.02 0.02 0.03 0.04 0.04 0.04 0.04 0.05 0.06 0.06 0.05 0.05 0.06 0.07 0.06 0.07 0.07 0.06 0.06 0.04 0.03 0.02 0.01
0.05 0.04 0.04 0.07 0.09 0.13 0.10 0.07 0.06 0.07 0.08 0.09 0.07 0.04 0.02 0.02 0.03 0.04 0.03 0.02 0.01 0.01 0.01 0.02 0.02 0.03 0.03 0.04 0.04 0.05 0.05 0.05 0.06 0.06 0.07 0.06 0.07 0.06 0.07 0.05 0.04 0.04 0.04 0.03
0.03 0.03 0.04 0.07 0.07 0.08 0.07 0.04 0.04 0.06 0.09 0.10 0.07 0.06 0.02 0.01 0.01 0.02 0.02 0.01 0.01 0.00 0.01 0.01 0.01 0.01 0.02 0.03 0.04 0.04 0.04 0.05 0.07 0.08 0.08 0.06 0.05 0.05 0.05 0.07 0.06 0.06 0.05 0.04
0.04 0.04 0.05 0.06 0.05 0.06 0.05 0.03 0.04 0.06 0.08 0.08 0.04 0.03 0.01 0.00 0.00 0.00 0.00 0.00 0.00 0.00 0.00 0.00 0.00 0.01 0.01 0.01 0.03 0.03 0.03 0.05 0.07 0.08 0.10 0.10 0.08 0.07 0.07 0.07 0.06 0.06 0.05 0.03
0.03 0.03 0.04 0.03 0.03 0.05 0.06 0.04 0.05 0.07 0.07 0.07 0.03 0.01 0.00 0.00 0.00 0.00 0.00 0.00 0.00 0.00 0.00 0.00 0.00 0.00 0.00 0.00 0.01 0.02 0.03 0.03 0.06 0.09 0.10 0.09 0.08 0.07 0.05 0.05 0.05 0.04 0.04 0.03
0.03 0.03 0.02 0.02 0.03 0.05 0.07 0.06 0.10 0.14 0.10 0.03 0.01 0.00 0.00 0.00 0.00 0.00 0.00 0.00 0.00 0.00 0.00 0.00 0.00 0.00 0.00 0.00 0.00 0.01 0.01 0.02 0.03 0.06 0.07 0.08 0.07 0.06 0.05 0.05 0.04 0.03 0.03 0.02
0.04 0.05 0.03 0.03 0.04 0.07 0.07 0.04 0.05 0.06 0.03 0.01 0.00 0.00 0.00 0.00 0.00 0.00 0.00 0.00 0.00 0.00 0.00 0.00 0.00 0.00 0.00 0.00 0.00 0.00 0.00 0.01 0.02 0.03 0.05 0.05 0.06 0.05 0.04 0.04 0.04 0.04 0.03 0.03
0.05 0.05 0.03 0.04 0.05 0.05 0.05 0.03 0.03 0.04 0.01 0.01 0.00 0.00 0.00 0.00 0.00 0.00 0.00 0.00 0.00 0.00 0.00 0.00 0.00 0.00 0.00 0.00 0.00 0.00 0.00 0.00 0.00 0.01 0.02 0.03 0.03 0.03 0.03 0.03 0.03 0.02 0.02 0.02
0.04 0.03 0.03 0.03 0.03 0.03 0.03 0.03 0.03 0.04 0.02 0.01 0.00 0.00 0.00 0.00 0.00 0.00 0.00 0.00 0.00 0.00 0.00 0.00 0.00 0.00 0.00 0.00 0.00 0.00 0.00 0.00 0.00 0.00 0.00 0.01 0.02 0.01 0.02 0.02 0.01 0.01 0.01 0.01
0.03 0.03 0.02 0.02 0.02 0.01 0.01 0.02 0.02 0.02 0.02 0.01 0.01 0.01 0.01 0.00 0.00 0.00 0.00 0.00 0.00 0.00 0.00 0.00 0.00 0.00 0.00 0.00 0.00 0.00 0.00 0.00 0.00 0.00 0.00 0.00 0.01 0.01 0.01 0.01 0.01 0.00 0.00 0.00
0.02 0.02 0.01 0.01 0.00 0.00 0.01 0.01 0.01 0.02 0.02 0.02 0.02 0.02 0.00 0.00 0.00 0.00 0.00 0.00 0.00 0.00 0.00 0.00 0.00 0.00 0.00 0.00 0.00 0.00 0.00 0.00 0.00 0.00 0.00 0.00 0.00 0.01 0.01 0.00 0.00 0.00 0.00 0.00
0.02 0.01 0.01 0.01 0.01 0.01 0.01 0.00 0.01 0.01 0.01 0.02 0.02 0.02 0.01 0.00 0.00 0.00 0.00 0.00 0.00 0.00 0.00 0.00 0.00 0.00 0.00 0.00 0.00 0.00 0.00 0.00 0.00 0.00 0.00 0.00 0.00 0.00 0.00 0.00 0.00 0.00 0.00 0.00
0.02 0.01 0.01 0.02 0.01 0.02 0.01 0.00 0.00 0.01 0.01 0.01 0.01 0.01 0.01 0.01 0.00 0.00 0.00 0.00 0.00 0.00 0.00 0.00 0.00 0.00 0.00 0.00 0.00 0.00 0.00 0.00 0.00 0.00 0.00 0.00 0.00 0.00 0.00 0.00 0.00 0.00 0.00 0.00
0.01 0.00 0.00 0.00 0.01 0.01 0.01 0.00 0.00 0.00 0.00 0.00 0.00 0.01 0.01 0.01 0.01 0.00 0.00 0.00 0.00 0.00 0.00 0.00 0.00 0.00 0.00 0.00 0.00 0.00 0.00 0.00 0.00 0.00 0.00 0.00 0.00 0.00 0.00 0.00 0.00 0.00 0.00 0.00
0.00 0.00 0.00 0.00 0.00 0.00 0.00 0.00 0.00 0.00 0.00 0.00 0.00 0.00 0.00 0.01 0.01 0.01 0.00 0.00 0.00 0.00 0.00 0.00 0.00 0.00 0.00 0.00 0.00 0.00 0.00 0.00 0.00 0.00 0.00 0.00 0.00 0.00 0.00 0.00 0.00 0.00 0.00 0.00
0.01 0.01 0.01 0.00 0.00 0.00 0.00 0.00 0.00 0.00 0.00 0.00 0.00 0.00 0.00 0.00 0.01 0.00 0.00 0.00 0.00 0.00 0.00 0.00 0.00 0.00 0.00 0.00 0.00 0.00 0.00 0.00 0.00 0.00 0.00 0.00 0.00 0.00 0.00 0.00 0.00 0.00 0.00 0.00
0.01 0.01 0.02 0.01 0.01 0.01 0.01 0.00 0.00 0.00 0.00 0.00 0.00 0.00 0.00 0.00 0.00 0.00 0.00 0.00 0.00 0.00 0.00 0.00 0.00 0.00 0.00 0.00 0.00 0.00 0.00 0.00 0.00 0.00 0.00 0.00 0.00 0.00 0.00 0.00 0.00 0.00 0.00 0.00
0.01 0.01 0.02 0.02 0.01 0.01 0.00 0.00 0.00 0.01 0.01 0.01 0.00 0.00 0.00 0.00 0.00 0.00 0.00 0.00 0.00 0.00 0.00 0.00 0.00 0.00 0.00 0.00 0.00 0.00 0.00 0.00 0.00 0.00 0.00 0.00 0.00 0.00 0.00 0.00 0.00 0.00 0.00 0.00
0.01 0.00 0.01 0.02 0.02 0.01 0.00 0.00 0.00 0.01 0.02 0.01 0.00 0.00 0.00 0.00 0.00 0.00 0.00 0.00 0.00 0.00 0.00 0.00 0.00 0.00 0.00 0.00 0.00 0.00 0.00 0.00 0.00 0.00 0.00 0.00 0.00 0.00 0.00 0.00 0.00 0.00 0.00 0.00
0.01 0.01 0.01 0.02 0.02 0.01 0.00 0.00 0.00 0.01 0.02 0.01 0.00 0.00 0.00 0.00 0.00 0.00 0.00 0.00 0.00 0.00 0.00 0.00 0.00 0.00 0.00 0.00 0.00 0.00 0.00 0.00 0.00 0.00 0.00 0.00 0.00 0.00 0.00 0.00 0.00 0.00 0.00 0.00
0.00 0.01 0.01 0.01 0.02 0.02 0.01 0.00 0.01 0.01 0.00 0.00 0.00 0.00 0.00 0.00 0.00 0.00 0.00 0.00 0.00 0.00 0.00 0.00 0.00 0.00 0.00 0.00 0.00 0.00 0.00 0.00 0.00 0.00 0.00 0.00 0.00 0.00 0.00 0.00 0.00 0.00 0.00 0.00
0.00 0.00 0.00 0.01 0.01 0.01 0.01 0.01 0.01 0.01 0.00 0.00 0.00 0.00 0.00 0.00 0.00 0.00 0.00 0.00 0.00 0.00 0.00 0.00 0.00 0.00 0.00 0.00 0.00 0.00 0.00 0.00 0.00 0.00 0.00 0.00 0.00 0.00 0.00 0.00 0.00 0.00 0.00 0.00
0.01 0.00 0.00 0.01 0.01 0.01 0.01 0.01 0.00 0.00 0.00 0.00 0.00 0.00 0.00 0.00 0.00 0.00 0.00 0.00 0.00 0.00 0.00 0.00 0.00 0.00 0.00 0.00 0.00 0.00 0.00 0.00 0.00 0.00 0.00 0.00 0.00 0.00 0.00 0.00 0.00 0.00 0.00 0.00
0.01 0.01 0.01 0.01 0.01 0.01 0.01 0.00 0.00 0.00 0.00 0.00 0.00 0.00 0.00 0.00 0.00 0.00 0.00 0.00 0.00 0.00 0.00 0.00 0.00 0.00 0.00 0.00 0.00 0.00 0.00 0.00 0.00 0.00 0.00 0.00 0.00 0.01 0.01 0.00 0.00 0.00 0.00 0.00
0.01 0.01 0.01 0.01 0.00 0.01 0.01 0.00 0.00 0.00 0.00 0.00 0.00 0.00 0.00 0.00 0.00 0.00 0.00 0.00 0.00 0.00 0.00 0.00 0.00 0.00 0.00 0.00 0.01 0.01 0.01 0.01 0.01 0.01 0.01 0.01 0.01 0.01 0.01 0.01 0.01 0.01 0.01 0.01
MSLP
1015.22 1015.20 1015.02 1014.67 1014.21 1013.71 1013.27 1012.96 1012.84 1012.92 1013.15 1013.49 1013.85 1014.15 1014.35 1014.39 1014.30 1014.09 1013.83 1013.56 1013.33 1013.16 1013.06 1013.03 1013.03 1013.05 1013.07 1013.11 1013.17 1013.28 1013.48 1013.77 1014.16 1014.62 1015.13 1015.65 1016.12 1016.51 1016.81 1017.03 1017.17 1017.27 1017.37 1017.50
1014.24 1014.10 1013.84 1013.49 1013.11 1012.76 1012.52 1012.46 1012.59 1012.89 1013.32 1013.79 1014.23 1014.56 1014.72 1014.70 1014.53 1014.25 1013.91 1013.59 1013.32 1013.12 1013.01 1012.96 1012.94 1012.93 1012.92 1012.92 1012.94 1013.03 1013.20 1013.48 1013.87 1014.34 1014.87 1015.40 1015.89 1016.30 1016.61 1016.83 1016.98 1017.09 1017.19 1017.32
1013.25 1013.00 1012.69 1012.36 1012.07 1011.88 1011.84 1012.01 1012.36 1012.86 1013.44 1014.01 1014.48 1014.79 1014.90 1014.80 1014.54 1014.18 1013.78 1013.41 1013.12 1012.92 1012.81 1012.77 1012.76 1012.76 1012.75 1012.75 1012.76 1012.84 1013.00 1013.27 1013.65 1014.12 1014.65 1015.18 1015.67 1016.09 1016.41 1016.65 1016.82 1016.95 1017.08 1017.23
1012.38 1012.06 1011.73 1011.43 1011.24 1011.20 1011.35 1011.71 1012.24 1012.88 1013.55 1014.15 1014.61 1014.86 1014.88 1014.69 1014.35 1013.92 1013.47 1013.08 1012.79 1012.61 1012.54 1012.53 1012.56 1012.59 1012.61 1012.63 1012.67 1012.74 1012.90 1013.16 1013.52 1013.97 1014.46 1014.97 1015.45 1015.86 1016.20 1016.46 1016.67 1016.85 1017.03 1017.22
1011.74 1011.38 1011.05 1010.81 1010.72 1010.81 1011.11 1011.60 1012.25 1012.96 1013.65 1014.23 1014.62 1014.78 1014.71 1014.43 1014.01 1013.52 1013.06 1012.67 1012.41 1012.28 1012.26 1012.31 1012.40 1012.49 1012.57 1012.62 1012.68 1012.77 1012.92 1013.16 1013.48 1013.87 1014.32 1014.78 1015.23 1015.63 1015.98 1016.28 1016.53 1016.77 1017.02 1017.27
1011.36 1011.00 1010.72 1010.55 1010.55 1010.75 1011.15 1011.72 1012.41 1013.12 1013.77 1014.27 1014.57 1014.62 1014.45 1014.09 1013.61 1013.10 1012.64 1012.29 1012.08 1012.02 1012.07 1012.20 1012.36 1012.51 1012.64 1012.74 1012.83 1012.92 1013.06 1013.25 1013.52 1013.85 1014.23 1014.63 1015.03 1015.41 1015.76 1016.10 1016.41 1016.73 1017.04 1017.36
1011.23 1010.92 1010.70 1010.61 1010.70 1010.97 1011.42 1012.02 1012.69 1013.35 1013.92 1014.31 1014.49 1014.44 1014.17 1013.75 1013.25 1012.76 1012.33 1012.04 1011.90 1011.91 1012.03 1012.23 1012.46 1012.68 1012.85 1012.99 1013.09 1013.19 1013.30 1013.45 1013.65 1013.91 1014.20 1014.53 1014.88 1015.24 1015.59 1015.96 1016.33 1016.72 1017.11 1017.50
1011.31 1011.08 1010.93 1010.92 1011.07 1011.39 1011.86 1012.44 1013.05 1013.62 1014.07 1014.34 1014.41 1014.27 1013.95 1013.51 1013.02 1012.57 1012.21 1011.99 1011.92 1012.00 1012.19 1012.45 1012.72 1012.98 1013.19 1013.34 1013.45 1013.54 1013.62 1013.73 1013.86 1014.04 1014.26 1014.52 1014.81 1015.14 1015.50 1015.89 1016.32 1016.76 1017.22 1017.67
1011.52 1011.37 1011.31 1011.37 1011.57 1011.91 1012.36 1012.88 1013.40 1013.87 1014.20 1014.37 1014.36 1014.16 1013.83 1013.41 1012.98 1012.60 1012.32 1012.18 1012.19 1012.32 1012.55 1012.83 1013.12 1013.38 1013.60 1013.75 1013.86 1013.93 1013.99 1014.05 1014.13 1014.24 1014.40 1014.60 1014.85 1015.15 1015.51 1015.92 1016.38 1016.87 1017.37 1017.86
1011.79 1011.73 1011.74 1011.85 1012.08 1012.41 1012.82 1013.27 1013.70 1014.06 1014.30 1014.39 1014.33 1014.13 1013.83 1013.48 1013.14 1012.86 1012.67 1012.61 1012.67 1012.83 1013.07 1013.34 1013.60 1013.84 1014.03 1014.16 1014.25 1014.31 1014.34 1014.37 1014.42 1014.49 1014.61 1014.77 1014.99 1015.28 1015.63 1016.05 1016.53 1017.04 1017.56 1018.07
1012.06 1012.08 1012.14 1012.29 1012.52 1012.82 1013.18 1013.55 1013.89 1014.16 1014.34 1014.39 1014.33 1014.18 1013.96 1013.71 1013.49 1013.32 1013.24 1013.24 1013.33 1013.49 1013.69 1013.91 1014.12 1014.29 1014.43 1014.52 1014.58 1014.62 1014.64 1014.66 1014.70 1014.76 1014.86 1015.01 1015.22 1015.50 1015.85 1016.28 1016.75 1017.27 1017.78 1018.27
1012.33 1012.40 1012.49 1012.65 1012.86 1013.12 1013.41 1013.71 1013.97 1014.19 1014.32 1014.38 1014.36 1014.29 1014.18 1014.07 1013.98 1013.94 1013.94 1014.00 1014.10 1014.23 1014.37 1014.50 1014.61 1014.70 1014.76 1014.79 1014.81 1014.83 1014.85 1014.88 1014.92 1015.00 1015.12 1015.28 1015.49 1015.78 1016.13 1016.55 1017.02 1017.51 1018.01 1018.46
1012.60 1012.69 1012.79 1012.93 1013.11 1013.32 1013.54 1013.77 1013.98 1014.15 1014.28 1014.37 1014.43 1014.46 1014.49 1014.52 1014.57 1014.64 1014.72 1014.82 1014.91 1014.99 1015.04 1015.06 1015.06 1015.03 1015.00 1014.96 1014.94 1014.93 1014.95 1014.99 1015.07 1015.18 1015.32 1015.52 1015.76 1016.06 1016.42 1016.84 1017.29 1017.76 1018.21 1018.63
1012.88 1012.97 1013.07 1013.18 1013.31 1013.47 1013.63 1013.80 1013.96 1014.12 1014.26 1014.40 1014.54 1014.69 1014.85 1015.02 1015.20 1015.37 1015.52 1015.64 1015.70 1015.71 1015.67 1015.57 1015.44 1015.29 1015.15 1015.03 1014.95 1014.92 1014.94 1015.00 1015.11 1015.26 1015.45 1015.68 1015.97 1016.29 1016.67 1017.08 1017.52 1017.96 1018.38 1018.75
1013.20 1013.28 1013.36 1013.44 1013.53 1013.63 1013.74 1013.86 1014.00 1014.14 1014.31 1014.50 1014.72 1014.98 1015.26 1015.55 1015.83 1016.08 1016.28 1016.40 1016.43 1016.37 1016.22 1016.01 1015.75 1015.49 1015.24 1015.04 1014.89 1014.82 1014.83 1014.90 1015.04 1015.23 1015.47 1015.75 1016.07 1016.44 1016.83 1017.25 1017.68 1018.10 1018.50 1018.84
1013.56 1013.63 1013.68 1013.74 1013.79 1013.85 1013.93 1014.02 1014.14 1014.29 1014.48 1014.71 1015.00 1015.34 1015.70 1016.08 1016.43 1016.73 1016.95 1017.07 1017.06 1016.93 1016.69 1016.37 1016.01 1015.63 1015.28 1014.99 1014.78 1014.67 1014.65 1014.72 1014.87 1015.09 1015.37 1015.70 1016.06 1016.46 1016.89 1017.32 1017.76 1018.18 1018.55 1018.88
1013.95 1014.02 1014.06 1014.10 1014.14 1014.18 1014.24 1014.32 1014.43 1014.59 1014.80 1015.06 1015.39 1015.77 1016.19 1016.61 1016.99 1017.31 1017.53 1017.62 1017.58 1017.39 1017.07 1016.67 1016.21 1015.74 1015.30 1014.92 1014.65 1014.48 1014.42 1014.48 1014.63 1014.87 1015.18 1015.54 1015.95 1016.38 1016.84 1017.30 1017.75 1018.18 1018.55 1018.87
1014.37 1014.43 1014.49 1014.53 1014.57 1014.62 1014.69 1014.77 1014.89 1015.05 1015.27 1015.56 1015.90 1016.29 1016.71 1017.12 1017.50 1017.80 1018.00 1018.05 1017.96 1017.72 1017.35 1016.88 1016.35 1015.81 1015.30 1014.85 1014.51 1014.28 1014.18 1014.21 1014.35 1014.59 1014.91 1015.30 1015.74 1016.22 1016.71 1017.20 1017.68 1018.11 1018.50 1018.83
1014.78 1014.87 1014.94 1015.01 1015.08 1015.16 1015.24 1015.35 1015.49 1015.67 1015.89 1016.17 1016.50 1016.86 1017.24 1017.62 1017.95 1018.20 1018.34 1018.35 1018.22 1017.94 1017.52 1017.01 1016.44 1015.85 1015.28 1014.78 1014.38 1014.09 1013.95 1013.93 1014.05 1014.28 1014.61 1015.02 1015.49 1016.00 1016.53 1017.05 1017.55 1018.00 1018.40 1018.74
1015.20 1015.31 1015.41 1015.52 1015.63 1015.74 1015.87 1016.02 1016.18 1016.38 1016.61 1016.87 1017.16 1017.47 1017.79 1018.08 1018.33 1018.51 1018.58 1018.53 1018.35 1018.03 1017.59 1017.06 1016.46 1015.85 1015.25 1014.71 1014.26 1013.93 1013.74 1013.68 1013.77 1013.98 1014.31 1014.73 1015.22 1015.76 1016.32 1016.86 1017.38 1017.85 1018.26 1018.60
1015.61 1015.74 1015.87 1016.02 1016.17 1016.34 1016.52 1016.71 1016.91 1017.12 1017.35 1017.59 1017.83 1018.07 1018.30 1018.50 1018.65 1018.73 1018.72 1018.60 1018.37 1018.02 1017.57 1017.03 1016.44 1015.81 1015.20 1014.64 1014.16 1013.79 1013.56 1013.47 1013.52 1013.72 1014.04 1014.46 1014.97 1015.52 1016.10 1016.66 1017.19 1017.67 1018.07 1018.41
1016.03 1016.17 1016.32 1016.49 1016.68 1016.89 1017.12 1017.36 1017.60 1017.84 1018.07 1018.28 1018.47 1018.64 1018.77 1018.87 1018.91 1018.88 1018.78 1018.59 1018.32 1017.95 1017.49 1016.95 1016.37 1015.76 1015.15 1014.59 1014.09 1013.69 1013.42 1013.30 1013.32 1013.49 1013.79 1014.21 1014.72 1015.28 1015.87 1016.44 1016.97 1017.44 1017.83 1018.15
1016.45 1016.58 1016.74 1016.92 1017.14 1017.39 1017.66 1017.94 1018.21 1018.47 1018.71 1018.90 1019.04 1019.14 1019.18 1019.17 1019.11 1018.98 1018.80 1018.54 1018.22 1017.83 1017.38 1016.86 1016.29 1015.71 1015.12 1014.55 1014.05 1013.63 1013.33 1013.17 1013.16 1013.29 1013.57 1013.98 1014.47 1015.03 1015.61 1016.17 1016.70 1017.15 1017.52 1017.80
1016.88 1016.99 1017.12 1017.30 1017.53 1017.80 1018.10 1018.41 1018.71 1018.99 1019.23 1019.40 1019.52 1019.55 1019.52 1019.43 1019.27 1019.06 1018.80 1018.49 1018.14 1017.73 1017.28 1016.78 1016.25 1015.69 1015.12 1014.56 1014.05 1013.61 1013.28 1013.08 1013.03 1013.12 1013.36 1013.72 1014.19 1014.73 1015.29 1015.84 1016.34 1016.76 1017.11 1017.37
1017.30 1017.37 1017.48 1017.64 1017.86 1018.13 1018.44 1018.77 1019.09 1019.39 1019.63 1019.80 1019.88 1019.88 1019.79 1019.63 1019.40 1019.13 1018.82 1018.47 1018.09 1017.68 1017.24 1016.77 1016.26 1015.72 1015.17 1014.62 1014.10 1013.64 1013.27 1013.02 1012.91 1012.94 1013.12 1013.43 1013.85 1014.35 1014.87 1015.39 1015.87 1016.27 1016.59 1016.83
1017.71 1017.74 1017.81 1017.94 1018.13 1018.39 1018.70 1019.03 1019.36 1019.67 1019.91 1020.07 1020.14 1020.12 1020.00 1019.79 1019.53 1019.21 1018.86 1018.49 1018.11 1017.70 1017.28 1016.82 1016.34 1015.82 1015.28 1014.74 1014.20 1013.71 1013.29 1012.97 1012.78 1012.74 1012.84 1013.08 1013.43 1013.86 1014.33 1014.81 1015.26 1015.64 1015.95 1016.17
Thickness
5469 5468 5472 5481 5489 5500 5508 5519 5529 5541 5554 5560 5563 5571 5580 5589 5594 5600 5607 5615 5624 5634 5644 5651 5656 5661 5665 5668 5671 5673 5674 5676 5676 5675 5675 5674 5674 5675 5675 5676 5676 5675 5674 5673
5467 5470 5479 5487 5494 5498 5506 5514 5523 5536 5550 5555 5557 5565 5575 5583 5590 5598 5605 5610 5620 5628 5635 5643 5649 5653 5658 5663 5666 5668 5670 5671 5672 5673 5672 5671 5670 5669 5670 5669 5669 5669 5668 5667
5472 5480 5489 5492 5494 5499 5506 5515 5524 5533 5542 5550 5552 5555 5567 5579 5588 5596 5604 5610 5618 5625 5632 5638 5643 5648 5652 5656 5661 5664 5666 5667 5667 5667 5666 5664 5662 5661 5660 5660 5660 5660 5660 5659
5480 5488 5492 5494 5499 5506 5511 5522 5530 5535 5535 5536 5546 5544 5560 5574 5582 5591 5600 5608 5615 5624 5630 5636 5640 5643 5647 5652 5655 5658 5660 5661 5661 5661 5660 5658 5657 5655 5655 5654 5652 5651 5651 5650
5484 5491 5495 5499 5507 5513 5519 5529 5532 5534 5532 5532 5539 5540 5554 5570 5577 5590 5600 5608 5615 5621 5627 5633 5637 5641 5644 5646 5648 5650 5652 5653 5653 5654 5654 5652 5651 5649 5647 5645 5643 5642 5640 5639
5491 5497 5500 5506 5514 5519 5523 5526 5525 5526 5526 5526 5537 5538 5551 5567 5584 5595 5603 5608 5614 5620 5624 5629 5633 5636 5636 5637 5638 5640 5642 5643 5645 5646 5645 5645 5643 5641 5638 5636 5634 5632 5631 5629
5491 5499 5505 5511 5514 5517 5520 5518 5514 5515 5515 5524 5539 5542 5556 5579 5591 5598 5603 5607 5612 5615 5618 5622 5625 5626 5627 5628 5629 5630 5632 5633 5635 5636 5636 5636 5635 5634 5632 5630 5626 5624 5621 5618
5489 5494 5505 5511 5515 5515 5516 5518 5515 5517 5517 5523 5538 5542 5562 5582 5589 5596 5599 5602 5605 5608 5611 5616 5619 5620 5620 5620 5620 5621 5623 5624 5625 5626 5626 5626 5626 5625 5623 5621 5618 5615 5612 5609
5496 5499 5509 5514 5518 5519 5516 5516 5523 5518 5519 5522 5532 5548 5565 5576 5579 5585 5589 5592 5596 5600 5604 5608 5610 5611 5611 5611 5612 5612 5613 5613 5614 5615 5615 5615 5615 5614 5612 5610 5608 5604 5601 5598
5504 5503 5510 5515 5520 5522 5522 5522 5517 5517 5519 5522 5533 5542 5549 5563 5569 5576 5579 5583 5588 5592 5595 5598 5600 5601 5602 5602 5602 5602 5603 5603 5603 5603 5603 5603 5602 5602 5600 5598 5596 5593 5590 5586
5510 5504 5506 5512 5515 5517 5522 5524 5521 5516 5518 5519 5522 5533 5552 5556 5562 5566 5570 5575 5579 5582 5584 5586 5587 5588 5589 5590 5590 5591 5591 5592 5591 5591 5591 5590 5589 5588 5586 5584 5582 5580 5577 5573
5513 5503 5500 5508 5516 5521 5523 5525 5523 5517 5515 5515 5517 5529 5549 5552 5555 5558 5561 5565 5569 5572 5573 5574 5575 5576 5577 5578 5579 5580 5580 5581 5581 5580 5579 5577 5576 5574 5572 5570 5568 5566 5563 5560
5515 5503 5494 5500 5508 5516 5521 5525 5526 5521 5512 5508 5513 5526 5542 5544 5546 5549 5552 5554 5557 5560 5562 5562 5562 5563 5565 5566 5568 5569 5570 5570 5569 5569 5567 5565 5563 5561 5559 5557 5555 5553 5550 5547
5518 5504 5497 5500 5508 5512 5516 5521 5523 5517 5507 5512 5519 5526 5533 5536 5538 5540 5542 5543 5544 5547 5549 5550 5550 5552 5554 5556 5557 5559 5559 5559 5559 5558 5556 5554 5551 5549 5547 5545 5542 5540 5538 5535
5512 5503 5505 5509 5515 5514 5517 5520 5519 5516 5515 5513 5521 5524 5528 5530 5530 5531 5532 5534 5535 5537 5538 5539 5540 5541 5543 5545 5547 5549 5550 5550 5550 5548 5546 5544 5541 5538 5536 5533 5530 5528 5526 5524
5505 5502 5502 5504 5512 5514 5515 5518 5518 5518 5518 5518 5518 5518 5522 5523 5521 5520 5520 5522 5524 5525 5527 5530 5531 5533 5534 5536 5538 5540 5541 5541 5540 5539 5537 5534 5531 5528 5525 5522 5519 5516 5514 5512
5496 5496 5491 5490 5503 5507 5502 5509 5513 5512 5512 5515 5514 5512 5512 5511 5511 5508 5508 5509 5510 5513 5516 5519 5521 5523 5525 5528 5531 5532 5534 5533 5532 5530 5528 5525 5522 5518 5514 5511 5508 5505 5503 5501
5492 5486 5478 5481 5491 5486 5500 5507 5508 5501 5496 5499 5500 5498 5499 5500 5498 5495 5495 5496 5498 5502 5505 5507 5509 5513 5517 5520 5523 5526 5526 5525 5524 5521 5519 5516 5512 5508 5504 5500 5497 5495 5492 5490
5489 5484 5476 5474 5475 5484 5496 5500 5498 5495 5485 5483 5486 5486 5486 5488 5490 5486 5486 5486 5487 5490 5493 5496 5499 5502 5507 5510 5514 5516 5517 5516 5514 5513 5510 5508 5504 5499 5495 5491 5488 5485 5482 5480
5483 5481 5474 5471 5475 5478 5489 5491 5492 5489 5476 5472 5473 5472 5472 5476 5477 5477 5476 5476 5477 5480 5483 5486 5489 5493 5497 5501 5504 5506 5506 5506 5506 5505 5503 5500 5496 5492 5487 5483 5479 5476 5473 5470
5476 5473 5469 5466 5468 5474 5478 5479 5485 5475 5472 5462 5461 5460 5459 5458 5458 5460 5462 5464 5466 5469 5473 5476 5479 5482 5486 5490 5493 5494 5495 5496 5497 5495 5493 5490 5487 5483 5480 5475 5471 5467 5464 5460
5466 5460 5459 5458 5461 5464 5467 5467 5464 5459 5451 5450 5448 5447 5446 5446 5448 5449 5451 5452 5455 5457 5461 5465 5468 5471 5474 5477 5480 5483 5484 5486 5486 5485 5482 5480 5477 5474 5471 5466 5462 5458 5455 5452
5459 5459 5456 5457 5458 5453 5452 5449 5444 5442 5440 5439 5436 5435 5435 5435 5436 5437 5439 5441 5443 5446 5449 5452 5455 5458 5462 5465 5467 5470 5473 5474 5475 5474 5472 5470 5468 5465 5462 5458 5455 5451 5448 5445
5454 5452 5452 5450 5448 5444 5438 5436 5435 5433 5431 5429 5427 5426 5425 5424 5425 5426 5428 5430 5431 5433 5436 5439 5442 5446 5450 5453 5456 5458 5461 5463 5464 5464 5462 5461 5458 5456 5453 5451 5448 5445 5443 5440
5451 5448 5446 5443 5440 5434 5432 5429 5426 5424 5421 5418 5416 5415 5414 5413 5414 5414 5415 5417 5419 5421 5423 5426 5429 5434 5438 5441 5445 5448 5450 5452 5453 5454 5453 5452 5450 5449 5446 5444 5443 5441 5439 5437
5441 5440 5439 5439 5433 5428 5425 5422 5418 5414 5411 5408 5405 5403 5402 5402 5402 5403 5404 5406 5407 5409 5411 5414 5418 5422 5426 5429 5434 5437 5439 5442 5443 5444 5444 5444 5442 5441 5439 5437 5435 5435 5433 5432